Regional Weather Roundup
Issued by NWS Newport/Morehead, NC

Current Version | Previous Version | Text Only | Print | Product List | Glossary Off
Versions: 1 2 3 4 5 6 7 8 9 10 11 12 13 14 15 16 17 18 19 20 21 22 23 24 25 26 27 28 29 30 31 32 33 34 35 36 37 38 39 40 41 42 43 44 45 46 47 48 49 50
000 ASUS42 KMHX 112113 RWRMHX WEATHER ROUNDUP FOR EASTERN NORTH CAROLINA NATIONAL WEATHER SERVICE NEWPORT/MOREHEAD CITY NC 400 PM EST MON DEC 11 2017 NOTE: "FAIR" INDICATES FEW OR NO CLOUDS BELOW 12,000 FEET WITH NO SIGNIFICANT WEATHER AND/OR OBSTRUCTIONS TO VISIBILITY NCZ015>017-031-032-045>047-102-103-112200- NORTH COAST CITY SKY/WX TMP DP RH WIND PRES REMARKS EDENTON CLEAR 52 32 46 CALM 30.05S ELIZABETH CITY CLEAR 48 37 65 SE9 30.05S KITTY HAWK CLEAR 46 32 57 CALM 30.05S MANTEO CLEAR 46 28 49 NE3 30.07S $$ NCZ045>047-081-094-103-104-112200- CENTRAL COAST CITY SKY/WX TMP DP RH WIND PRES REMARKS FRISCO CLEAR 50 32 50 CALM 30.07R $$ NCZ095-097-098-100-101-112200- SOUTHERN COAST CITY SKY/WX TMP DP RH WIND PRES REMARKS BEAUFORT CLEAR 51 34 52 S3 30.05F CEDAR ISLAND NOT AVBL JACKSONVILLE CLEAR 53 30 41 E5 30.05F PINEY ISLAND N/A N/A N/A N/A CALM 30.05F WILMINGTON SUNNY 53 22 29 E6 30.06F $$ NCZ011>013-027>030-043-044-078>080-089-090>093-098-112200- COASTAL PLAIN CITY SKY/WX TMP DP RH WIND PRES REMARKS AHOSKIE CLEAR 48 31 50 CALM 30.04S CLINTON CLEAR 54 30 40 CALM 30.05F ELIZABETHTOWN NOT AVBL GOLDSBORO CLEAR 53 28 38 SW6 30.03S GREENVILLE CLEAR 54 32 43 SW6 30.06S HAVELOCK CLEAR 53 N/A N/A W5 30.06F KENANSVILLE CLEAR 54 27 35 SW3 30.05F KINSTON CLEAR 54 30 40 SW6 30.05F NEW BERN CLEAR 53 30 41 SW3 30.06S RICHLANDS CLEAR 53 29 39 SW6 30.05F ROCKY MOUNT CLEAR 53 32 44 S8 30.04S WASHINGTON CLEAR 53 30 42 S3 30.05F WHITEVILLE SUNNY 54 28 36 CALM 30.04F $$ AMZ130-135-150-152-154-156-158-170-250-252-270-ANZ085-086-088-633-658-670-112200- MARINE OBSERVATIONS STATION/POSITION TIME TEMP WIND PRES WAVE SWELL AIR SEA DIR/SP/G HT/PER HT/PER (UTC) (F) (DEG/KT/KT) (MB) (FT/S) (FT/S) CHESAPEAKE LIGHT NOT AVBL 64 E VA BEACH 2050 48 60 340/ 4/ 6 1018.0 3/ 4 2/10 DUCK 2042 48 55 140/ 4/ 6 1017.5 2 E DUCK 2030 54 N/A 1/10 OREGON INLET 2042 47 46 40/ 4/ 5 1017.7 13E OREGON INLT 2048 57 N/A 2/ 9 2/ 9 HATTERAS CG 2042 50 51 320/ 1/ 2 1017.9 DIAMOND BUOY 2100 52 75 290/ 4/ 10 1018.1 CAPE LOOKOUT 2100 210/ 3/ 3 1018.1 BEAUFORT LAB 2042 53 52 190/ 4/ 5 1017.7 30 SE NEW RVR IN 2008 52 69 350/ 2/ 6 1018.1 30 SE NEW RVR IN 2100 69 N/A 3/ 5 27 SE WRIGHTSVLE 2008 51 66 260/ 4/ 10 1018.4 5 SE WRIGHTSVLE 2008 51 58 250/ 2/ 4 1018.1 225 S CAPE HAT 2050 66 76 260/ 8/ 12 1018.0 4/ 8 3/ 8 41 SE CHARLESTON 2100 74 260/ 10/ 14 1018.0 $$

USA.gov is the U.S. government's official web portal to all federal, state and local government web resources and services.